TIANWANG 1A (TW-1A)
1 40928U 15051D   19264.75543781  .00002349  00000-0  58432-4 0  9991
2 40928  97.1393 293.9453 0012777  87.8709   2.6683 15.41205401223819
LAPAN A2
1 40931U 15052B   19264.65234398  .00000617  00000-0 -31666-5 0  9994
2 40931   5.9953  99.4133 0013297  57.0184 303.1201 14.76613378215325
LQSAT
1 40958U 15057A   19264.25244304 -.00000002  00000-0  72914-5 0  9991
2 40958  97.8906 330.8555 0016893 300.0353  59.9179 14.73089064212723
CHUBUSAT 2
1 41338U 16012B   19264.44078288  .00000280  00000-0  15080-4 0  9990
2 41338  31.0026 262.6180 0013769 321.5525  38.4129 15.00180344197153
CHUBUSAT 3
1 41339U 16012C   19264.39925006  .00000299  00000-0  16439-4 0  9993
2 41339  31.0111 260.8556 0013807 329.8214  30.1626 15.00354005197142
OUFTI-1
1 41458U 16025C   19263.81061680  .00001137  00000-0  61297-4 0  9998
2 41458  98.1004 355.4403 0166729  41.0023 320.3598 15.06023200186735
E-STAR-2
1 41459U 16025D   19264.71373129  .00000977  00000-0  53655-4 0  9993
2 41459  98.1012 355.9965 0167987  39.5661 321.7697 15.05655500186840
AAUSAT 4
1 41460U 16025E   19264.76804921  .00001310  00000-0  68822-4 0  9993
2 41460  98.0945 357.5374 0158048  30.8173 330.2208 15.07617256186995
NUSAT 1
1 41557U 16033B   19264.84829973  .00000853  00000-0  34558-4 0  9992
2 41557  97.4157 351.7937 0012744 327.5623  32.4832 15.27378180184612
BEESAT 4
1 41619U 16040W   19264.63878258  .00000892  00000-0  40463-4 0  9991
2 41619  97.3586 325.0566 0012625  55.3684 304.8741 15.23303246168310
PRATHAM
1 41783U 16059A   19264.18758903  .00000020  00000-0  13005-4 0  9992
2 41783  98.0581 321.6376 0034921  87.2255 273.2943 14.63009455159363
ALSAT 1N
1 41789U 16059G   19264.84725701  .00000037  00000-0  16022-4 0  9991
2 41789  98.0607 324.4849 0029557  74.2601 286.1851 14.64262033159572
NAYIF 1
1 42017U 17008BX  19264.73670768  .00000962  00000-0  40552-4 0  9993
2 42017  97.3949 330.8202 0006148 178.8980 181.2273 15.25718395144419
MAX VALIER SAT
1 42778U 17036P   19264.39453452  .00000555  00000-0  27195-4 0  9995
2 42778  97.3453 319.9332 0010764 248.6072 111.4016 15.22136242124647
